sat.trackr.live / text

‹ back to catalog

STARLINK-11731 [DTC]

NORAD 64371 · 2025-127B

PAYLOAD ACTIVE UNKNOWN

§ Identity

Operator
Country
US
Launch date
2025-06-13
Launch site
AFETR
Launch vehicle
Mass (kg)
RCS (m²)

Purposes: comms

External: N2YO · Heavens-Above · Gunter

§ Orbital elements

Epoch: 2026-09-19T09:25:04.624896Z

Period
91.67 min
Inclination
43.0003°
Eccentricity
0.0004869
Mean motion
15.70811075 rev/d
Perigee alt
353.3 km
Apogee alt
359.9 km
Semi-major
6,734.7 km
B*
1.0409e-3
RAAN
357.2433°
Arg perigee
296.4270°
Mean anomaly
63.6098°
Rev number
7,396

§ Raw data

STARLINK-11731 [DTC]1 64371U 25127B   26262.39241464  .00135207  00000+0  10409-2 0  99922 64371  43.0003 357.2433 0004869 296.4270  63.6098 15.70811075 73969

JSON: /api/v1/satellites/64371 · /tle

For live sub-satellite position, see the globe view (requires WebGL).

§ Visibility from observer

Set your observer location to see the next 7 days of passes ≥ 10°. The values pass through the URL so the page stays shareable.

No JS? Fill the form by hand. The geolocation button needs JavaScript.